User: anonymous   Login
Location: Mountain View
(42.7042°N, 73.6523°W)
Time: 03:35:52
(UTC+00:00)
Language:

Tiangong - Orbit

View from above orbital plane
View from above orbital plane
View from above satellite
View from above satellite

Ground track
Ground track

The orbit data is extracted from the following two-line orbital elements,

1 48274U 21035A   25347.29114768  .00030374  00000-0  37864-3 0  9993
2 48274  41.4684  13.3607 0008236  35.4193 324.7191 15.59202655264119
Epoch (UTC): 13 December 2025 06:59:15
Eccentricity: 0.0008236
inclination: 41.4684°
perigee height: 384 km
apogee height: 395 km
right ascension of ascending node: 13.3607°
argument of perigee: 35.4193°
revolutions per day: 15.59202655
mean anomaly at epoch: 324.7191°
orbit number at epoch: 26411

The dashed part of the orbit path shows where the satellite is in the earth's shadow,  

DLR